SWAS

Last updated on Fri Sep 19 2025 00:03:35 GMT+0000 (Coordinated Universal Time)

1 25560U 98071A 25261.26080904 .00004439 00000+0 30411-3 0 9999 2 25560 69.8961 207.4457 0008596 300.3444 59.6868 15.06779535456267
UTC large
Height (km)
Speed (km/s)
/
Latitude / Longitude
Inclination (degrees)
Orbital Period (minutes)
Azimuth
Elevation
Range (km)
Doppler Factor

Next 0 passes for location: London (51.5072 / 0.1276)

Sorry there are no passes over London.